Regional Weather Roundup
Issued by NWS Sioux Falls, SD

Home | Current Version | Previous Version | Graphics & Text | Print | Product List | Glossary On
Versions: 1 2 3 4 5 6 7 8 9 10 11 12 13 14 15 16 17 18 19 20 21 22 23 24 25 26 27 28 29 30 31 32 33 34 35 36 37 38 39 40 41 42 43 44 45 46 47 48 49 50
000
ASUS43 KFSD 231202
RWRFSD

WEATHER ROUNDUP FOR SE SOUTH DAKOTA/SW MINNESOTA/NW IOWA
NATIONAL WEATHER SERVICE SIOUX FALLS SD
600 AM CST MON JAN 23 2017

NOTE: "FAIR" INDICATES FEW OR NO CLOUDS BELOW 12,000 FEET WITH NO
SIGNIFICANT WEATHER AND OR OBSTRUCTIONS TO VISIBILITY.


SDZ038>040-050-052>070-231300-
SOUTHEAST SOUTH DAKOTA

CITY           SKY/WX    TMP DP  RH WIND       PRES   REMARKS
BROOKINGS      CLOUDY    29  27  92 NW6       29.81F WCI  23
CHAMBERLAIN    CLOUDY    30  28  90 CALM      29.83F
6HR MIN TEMP:  30; 6HR MAX TEMP:  31;

HURON          CLOUDY    29  26  89 NW7       29.84S WCI  22
6HR MIN TEMP:  29; 6HR MAX TEMP:  31;

MADISON        CLOUDY    27  27 100 NW7         N/A  WCI  19
MITCHELL       CLOUDY    30  26  85 NW6       29.86F WCI  24
6HR MIN TEMP:  30; 6HR MAX TEMP:  31;

SIOUX FALLS    FLURRIES  31  29  92 NW7       29.84F WCI  24
6HR MIN TEMP:  31; 6HR MAX TEMP:  32; 6HR PCP: TRACE;

WINNER         FOG       25  23  92 SE7       29.82F VSB 1   WCI  17
YANKTON        CLOUDY    30  25  80 NW3       29.86F
$$

MNZ071-072-080-081-089-090-097-098-231300-
SOUTHWEST MINNESOTA

CITY           SKY/WX    TMP DP  RH WIND       PRES   REMARKS
FAIRMONT       CLOUDY    33  28  81 NW7       29.83F WCI  27
JACKSON        CLOUDY    32  27  80 NW13G18   29.83S WCI  22
MARSHALL       CLOUDY    32  29  88 NW8       29.84S WCI  25
6HR MIN TEMP:  32; 6HR MAX TEMP:  33;

MONTEVIDEO     CLOUDY    34  34 100 N7        29.86R WCI  28
PIPESTONE      CLOUDY    30  28  93 NW6       29.82S WCI  24
REDWOOD FALLS  CLOUDY    34  28  79 NW8       29.83S WCI  27
TRACY          CLOUDY    33  31  92 NW6       29.83S WCI  27
WINDOM         CLOUDY    34  28  80 NW9       29.82S WCI  26
WORTHINGTON    CLOUDY    31  28  89 N9        29.83S WCI  23
$$

IAZ001>003-012>014-020>022-031-032-NEZ013-014-SDZ071-231300-
NORTHWEST IOWA

CITY           SKY/WX    TMP DP  RH WIND       PRES   REMARKS
CHEROKEE       CLOUDY    32  30  91 N7        29.85F WCI  26
DENISON        CLOUDY    32  28  86 N8        29.84F WCI  25
ESTHERVILLE    CLOUDY    32  29  88 NW10      29.83R WCI  24
LE MARS        CLOUDY    32  28  86 N5        29.86F WCI  27
ORANGE CITY    CLOUDY    30  28  93 N6        29.84F WCI  24
SHELDON        CLOUDY    32  32 100 NW7       29.82F WCI  26
SIOUX CITY     CLOUDY    33  28  81 NW5       29.87F WCI  29
6HR MIN TEMP:  33; 6HR MAX TEMP:  34;

SPENCER          N/A    N/A N/A N/A MISG      29.84S
STORM LAKE     CLOUDY    32  28  86 N8        29.84F WCI  25
$$

ABBREVIATIONS USED IN REMARKS
   TC - TEMPERATURE IN CELSIUS
  WCI - WIND CHILL INDEX
   HX - HEAT INDEX
  VSB - VISIBILITY





USA.gov is the U.S. government's official web portal to all federal, state and local government web resources and services.